Location: Chevoux
(46.3801°N, 4.9476°E)
Time: 16:42:06
(UTC+00:00)

Cosmos 1809 Rocket - Pass Details

Date: 28 January 2021
Orbit: 942 x 962 km, 82.5° (Epoch: 28 February)

Event Time Altitude Azimuth Distance (km) Brightness Sun altitude
Rises 19:01:09 0° 187° (S) 3,607 7.6 -24.5°
Reaches altitude 10° 19:03:37 10° 188° (S) 2,669 6.9 -24.9°
Maximum altitude 19:09:45 89° 279° (W) 962 4.4 -26.0°
Drops below altitude 10° 19:15:57 10° 9° (N) 2,701 6.7 -27.1°
Sets 19:18:28 0° 10° (N) 3,654 7.4 -27.5°
